Regional Weather Roundup
Issued by NWS

Home | Current Version | Previous Version | Graphics & Text | Print | Product List | Glossary On
Versions: 1 2 3 4 5 6 7 8 9 10 11 12 13 14 15 16 17 18 19 20 21 22 23 24 25 26 27 28 29 30 31 32 33 34 35 36 37 38 39 40 41 42 43 44 45 46 47 48 49 50
000
ASUS45 KBOU 221407
RWRCO

WEATHER ROUNDUP FOR COLORADO
NATIONAL WEATHER SERVICE DENVER/BOULDER CO
800 AM MDT MON MAY 22 2017

NOTE: "FAIR" INDICATES FEW OR NO CLOUDS BELOW 12000 FEET WITH NO
SIGNIFICANT WEATHER AND/OR OBSTRUCTIONS TO VISIBILITY.

COZ001>005-013-030-031-221500-
...NORTHWEST COLORADO...

CITY           SKY/WX    TMP DP  RH WIND       PRES   REMARKS
CRAIG          CLOUDY    37  35  92 CALM      30.31R
HAYDEN         CLOUDY    37  32  81 CALM      30.30S
MEEKER         FAIR      41  38  89 CALM      30.30S
RABBIT EARS PA FAIR      30  28  93 NW7       30.35S WCI  23
STEAMBOAT SPGS FAIR      37  33  85 CALM      30.29F
WALDEN           N/A     36  32  87 S3        30.31F
$$

COZ006>008-011-221500-
...WEST CENTRAL VALLEYS...

CITY           SKY/WX    TMP DP  RH WIND       PRES   REMARKS
GRAND JUNCTION FAIR      54  41  61 NW3       30.23R
MONTROSE       PTSUNNY   47  41  80 CALM      30.27S
EAGLE          MOSUNNY   45  39  81 CALM      30.31R
RIFLE          FAIR      48  41  76 CALM      30.26R
DELTA          FAIR      53  40  61 CALM      30.25R
NUCLA          FAIR      46  36  66 CALM      30.29R
$$

COZ017>023-064>068-221500-
...SOUTHWEST COLORADO...

CITY           SKY/WX    TMP DP  RH WIND       PRES   REMARKS
DURANGO        FAIR      45  32  60 CALM      30.20R
CORTEZ         FAIR      47  39  74 E6        30.22R
PAGOSA SPRINGS FAIR      46  27  48 CALM      30.24S
TELLURIDE      FAIR      39  35  86 CALM      30.32S
WOLF CREEK PAS FAIR      30  23  74 N5        30.42R WCI  25
$$

COZ009-010-012-014-032>034-037-058>063-221500-
...CENTRAL COLORADO...

CITY           SKY/WX    TMP DP  RH WIND       PRES   REMARKS
ASPEN          PTSUNNY   42  37  82 CALM      30.28S
BUENA VISTA    FAIR      43  37  79 CALM      30.28S
COPPER MTN     FOG       30  27  86 MISG      30.38R VSB<1/4
BERTHOUD PASS  HAZE      21  10  63 NW15G24   30.36R VSB<1/4 WCI   8
COTTONWOOD PAS CLOUDY    39  34  81 CALM      30.31S
GUNNISON       FAIR      41  37  86 N3        30.29S
KREMMLING      FAIR      45  37  76 CALM      30.32S
LEADVILLE      FAIR      36  23  59 N16       30.30S
MONARCH PASS   CLOUDY    28  27  93 W9        30.46S WCI  20
SALIDA         CLOUDY    44  39  83 S3        30.34F
SUNLIGHT       CLOUDY    30  30 100 NE3       30.40S
WILKERSON PASS CLOUDY    30  28  93 NW7       30.36S FOG     WCI  23
$$

COZ069>075-221500-
...SAN LUIS VALLEY/SANGRE DE CRISTO MOUNTAINS...

CITY           SKY/WX    TMP DP  RH WIND       PRES   REMARKS
ALAMOSA        FAIR      43  34  70 CALM      30.23S
DEL NORTE      PTSUNNY   43  29  57 W6        30.26R
LA VETA PASS   SNOW      32  32 100 N5        30.41S VSB 1/4 WCI  27
SAGUACHE       FAIR      46  32  57 N12       30.26S
$$

COZ035-036-038>040-221500-
...NORTHERN COLORADO FRONT RANGE...

CITY           SKY/WX    TMP DP  RH WIND       PRES   REMARKS
DENVER INTL AP FAIR      50  44  80 SW9       30.19S
DMNS CITY PARK   N/A     53  43  68 W3G10     30.19S
AURORA         MOSUNNY   49  44  80 SW7       30.20F
FRONT RANGE AP MOSUNNY   50  46  87 SW10      30.20F
ERIE MUNI ARPT FAIR      51  45  79 CALM      30.19S
BOULDER MUN AP FAIR      52  39  62 S3        30.18S
CENTENNIAL     FAIR      50  41  71 W7        30.20F
BROOMFIELD     MOSUNNY   52  41  66 CALM      30.20S
FORT COLLINS   FAIR      49  41  74 CALM      30.19S
LONGMONT       FAIR      54  44  71 CALM      30.20F
$$

COZ041-046-047-076>085-087-088-221500-
...PIKES PEAK/PALMER DIVIDE AND SOUTHERN FOOTHILLS...

CITY           SKY/WX    TMP DP  RH WIND       PRES   REMARKS
COLO. SPRINGS  PTSUNNY   48  42  80 N7        30.22F
A. F. ACADEMY  FAIR      46  44  93 N6        30.21F
SCHRIEVER AFB  PTSUNNY   47  39  74 NW9       30.22S
CHEYENNE MTN   PTSUNNY   44  34  67 CALM      30.18R
ELLICOTT       FAIR     N/A N/A N/A W5        30.21R
FALCON         FAIR      45  39  81 W7        30.23F
FORT CARSON    PTSUNNY   48  41  77 CALM      30.21S
LIMON          FAIR      50  44  80 NW14      30.18S
MONUMENT HILL  FAIR      45  37  76 NW7       30.24F
CANON CITY     NOT AVBL
WALSENBURG     CLOUDY    45  43  93 NE7       30.24S
TRINIDAD       CLOUDY    46  42  86 N13       30.23R
$$

COZ042>045-048>051-090-091-221500-
...NORTHEAST COLORADO...

CITY           SKY/WX    TMP DP  RH WIND       PRES   REMARKS
GREELEY ARPT   FAIR      50  44  80 W7        30.19S
AKRON          FAIR      50  45  83 W17       30.14S
BURLINGTON     FAIR      51  47  86 NW7       30.12F
WRAY           FAIR      54  50  87 W9        30.11S
YUMA           FAIR      52  46  82 W13       30.13S
STERLING       FAIR      52  45  76 W6        30.12F
HOLYOKE        NOT AVBL
FORT MORGAN    FAIR      48  46  92 W14       30.16S
$$

COZ086-089-092>099-221500-
...SOUTHEAST COLORADO...

CITY           SKY/WX    TMP DP  RH WIND       PRES   REMARKS
PUEBLO         CLOUDY    50  44  80 CALM      30.21S
LA JUNTA       LGT RAIN  49  46  90 NW21G26   30.21R
LAMAR          LGT RAIN  53  48  83 W7        30.13S
SPRINGFIELD      N/A     55  47  74 CALM      30.14S
$$



USA.gov is the U.S. government's official web portal to all federal, state and local government web resources and services.